星链-2591 (STARLINK-2591 )

导读 | 豆包AI

STARLINK-2591是美国SpaceX公司星链(Starlink)卫星互联网项目中的一员,于2021年5月4日发射,属于第一代星链星座组网卫星。它运行在近地轨道,作为星链低轨星座的组成部分,旨在为全球偏远地区提供低延迟高速宽带互联网服务。星链计划计划部署上万颗卫星,该星遵循设计规则,服役结束后会主动离轨再入大气层销毁,减少太空垃圾。

基本信息
目录编号:
48361
目录名称:
STARLINK-2591
国际标识:
2021-038J
轨道中心:
EARTH
卫星名称:
星链-2591
卫星全名:
星链-2591 (STARLINK-2591 )
卫星状态:
在轨 (已飞行1775 天)
发射日期:
2021-05-04 UTC
国别 :
美国 (US)
星等 :
--
轨道信息
数据来源 国际轨道数据
星历时间: 2026-03-14T07:49:36+0800
16小时前
查看轨道信息
半长轴: 6853.356km
偏心率: 0.0001369
轨道倾角: 53.161°
近地点辐角 96.383°
升交点赤经 338.134°
平近点角 263.733°
近地点: 474.28km
远地点: 476.158km
周期: 94.105分钟
每日圈数: 15.301987
详细信息
固有亮度:
5
最大亮度:
2.5
卫星平台:
Starlink V1.0
覆盖范围:
全球
运营商:
太空探索技术公司
运营商所在国:
美国
制造商(研发单位):
太空探索技术公司
制造商所在国:
美国
使用方式:
暂无
卫星简介
星链(Starlink)计划是由太空探索技术公司(SpaceX)提出的一个巨型低轨卫星互联网星座项目,计划在2019年至2024年间在太空搭建由约1.2万颗卫星组成的“星链”网络,其中1584颗将部署在地球上空550千米处的近地轨道,并从2020年开始工作。该卫星仍在工作。
2D轨道图
3D轨道图
轨道高度分析图
轨道倾角分析图
轨道综合分析图
查看轨道综合分析图